DMSP 5D-2 F13 DEB, 40677

Orbit data source: Space-Track

DMSP 5D-2 F13 DEB, 40677 is space debris in SSO originally from a launch on Fri, 24 Mar 1995 UTC launched from the Air Force Western Test Range (AFWTR). Debris objects in space refer to the collection of defunct objects orbiting the Earth. Examples of debris include non-operational satellites, rocket bodies, and fragments generated from explosions, collisions, or faulty payload assembly.

Loading next visibility...
Identifier
40677, 1995-015FR
Orbit
SSO
Country
Flag of USUS
Related business
Manufacturer
Unknown
Mission
Spacecraft
Bus & Motor
Unknown
Mass
Unknown
Launch date (UTC)
1995-03-24 (31 years ago)
Launch vehicle
Unknown
Launch site
Air Force Western Test Range (AFWTR)
Object type
Payload
Rocket body
Debris
Shape & HBR
Unknown shape, 0.1 m
Radar Cross Section
Small (<0.1 m²)

Expand to show TLE details & history
Last TLE update: 3 weeks ago

TLE from 3 weeks ago
0 DMSP 5D-2 F13 DEB
1 40677U 95015FR  25265.28230866  .00000838  00000-0  35303-3 0  9995
2 40677  98.6054 281.3487 0047798 330.6502  29.1996 14.27739735542190
Epoch: 2025-09-22T06:46Z
TLE epoch observation values (Epoch: 2025-09-22T06:46:31.468Z)
Latitude
-0°
Longitude
178.32885°
Altitude
772.31 km
Speed
7.483 km/s
True Right ascension
18h 45m 23s
True Declination
0° 00' 00"
Sunlit
Object was in daylight at epoch
Visualization orbit readout
Latitude
Unknown
Longitude
Unknown
Altitude
Unknown
Speed
Unknown
Apparent Right ascension
Unknown
Apparent Declination
Unknown
Sunlit
N/A
Visualization observer readout
Local Sidereal Time
12:23:49
Azimuth
Unknown
Elevation
Unknown
Doppler factor
Unknown
Orbital elements
Apogee altitude
830.732 km
Perigee altitude
762.146 km
Semi-major axis
7,174.576 km
Eccentricity
0.00478
Inclination
98.6054°
RAAN
281.3487°
Arg. of periapsis
330.6502°
True anomaly
29.46821°
Mean anomaly
29.1996°
Eccentric anomaly
29.33376°
Mean motion
3.57148 °/min
Orbital period
100.8 mins
BSTAR
0.00035303

Documentation

Showing up to 5 results
|